When you browse on this site, cookies collect data to enhance your experience and personalize the content and advertising you see.
Visit our Privacy Policy to learn more. By continuing to use the site, you agree to this use of cookies and data.
  • In Hungary
  • List of Countries
  • For 7 days
  • Water Temperature
  • Weather Map
  • News
  • Weather Widgets
  • user-avatar
    Login

    Hourly Weather Totolapa

    Today, 18 November, Monday

    Time Temperature Precipitation Wind Pressure Humidity
    00:00 +21°C° 0 mm 1 mps 707 mmHg 88%
    01:00 +21°C° 0 mm 1 mps 707 mmHg 87%
    02:00 +21°C° 0 mm 1 mps 707 mmHg 87%
    03:00 +18°C° 0 mm 0 mps 707 mmHg 86%
    04:00 +20°C° 0 mm 1 mps 707 mmHg 86%
    05:00 +20°C° 0 mm 1 mps 707 mmHg 85%
    06:00 +19°C° 0 mm 1 mps 707 mmHg 85%
    07:00 +21°C° 0 mm 1 mps 708 mmHg 80%
    08:00 +23°C° 0 mm 1 mps 708 mmHg 76%
    09:00 +24°C° 0 mm 1 mps 709 mmHg 71%
    10:00 +26°C° 0 mm 1 mps 709 mmHg 69%
    11:00 +27°C° 0 mm 1 mps 708 mmHg 66%
    12:00 +28°C° 0 mm 1 mps 708 mmHg 63%
    13:00 +28°C° 0 mm 1 mps 707 mmHg 64%
    14:00 +28°C° 0 mm 1 mps 707 mmHg 65%
    15:00 +28°C° 0 mm 2 mps 706 mmHg 66%
    16:00 +26°C° 0 mm 1 mps 706 mmHg 74%
    17:00 +24°C° 0 mm 1 mps 706 mmHg 82%
    18:00 +22°C° 0 mm 1 mps 706 mmHg 90%
    19:00 +21°C° 0 mm 1 mps 707 mmHg 88%
    20:00 +21°C° 0 mm 1 mps 707 mmHg 85%
    21:00 +20°C° 0 mm 1 mps 708 mmHg 83%
    22:00 +20°C° 0 mm 1 mps 708 mmHg 81%
    23:00 +20°C° 0 mm 1 mps 708 mmHg 79%

    Tomorrow, 19 November, Tuesday

    Time Temperature Precipitation Wind Pressure Humidity
    00:00 +18°C° 0 mm 0 mps 707 mmHg 77%
    01:00 +17°C° 0 mm 0 mps 707 mmHg 78%
    02:00 +17°C° 0 mm 0 mps 707 mmHg 78%
    03:00 +17°C° 0 mm 0 mps 707 mmHg 78%
    04:00 +17°C° 0 mm 0 mps 707 mmHg 78%
    05:00 +17°C° 0 mm 0 mps 707 mmHg 78%
    06:00 +17°C° 0 mm 0 mps 707 mmHg 77%
    07:00 +19°C° 0 mm 0 mps 708 mmHg 75%
    08:00 +21°C° 0 mm 0 mps 708 mmHg 72%
    09:00 +24°C° 0 mm 1 mps 709 mmHg 69%
    10:00 +26°C° 0 mm 1 mps 709 mmHg 66%
    11:00 +27°C° 0 mm 1 mps 708 mmHg 64%
    12:00 +29°C° 0 mm 1 mps 708 mmHg 61%
    13:00 +29°C° 0 mm 1 mps 708 mmHg 62%
    14:00 +28°C° 0 mm 1 mps 707 mmHg 63%
    15:00 +28°C° 0 mm 1 mps 707 mmHg 64%
    16:00 +26°C° 0 mm 1 mps 707 mmHg 72%
    17:00 +24°C° 0 mm 1 mps 707 mmHg 80%
    18:00 +22°C° 0 mm 1 mps 707 mmHg 88%
    19:00 +22°C° 0 mm 1 mps 707 mmHg 89%
    20:00 +21°C° 0 mm 1 mps 708 mmHg 89%
    21:00 +21°C° 0 mm 1 mps 708 mmHg 89%
    22:00 +20°C° 0 mm 1 mps 708 mmHg 90%
    23:00 +18°C° 0 mm 0 mps 708 mmHg 91%

    Day after tomorrow, 20 November, Wednesday

    Time Temperature Precipitation Wind Pressure Humidity
    00:00 +18°C° 0 mm 0 mps 708 mmHg 92%
    01:00 +18°C° 0 mm 0 mps 708 mmHg 93%
    02:00 +18°C° 0 mm 0 mps 707 mmHg 93%
    03:00 +18°C° 0 mm 0 mps 707 mmHg 94%
    04:00 +17°C° 0 mm 0 mps 707 mmHg 93%
    05:00 +17°C° 0 mm 0 mps 707 mmHg 92%
    06:00 +17°C° 0 mm 0 mps 707 mmHg 91%
    07:00 +19°C° 0 mm 0 mps 708 mmHg 85%
    08:00 +21°C° 0 mm 0 mps 709 mmHg 79%
    09:00 +25°C° 0 mm 1 mps 709 mmHg 73%
    10:00 +27°C° 0 mm 1 mps 709 mmHg 70%
    11:00 +28°C° 0 mm 1 mps 709 mmHg 67%
    12:00 +30°C° 0 mm 1 mps 708 mmHg 64%
    13:00 +29°C° 0.1 mm 1 mps 708 mmHg 65%
    14:00 +29°C° 0.1 mm 1 mps 707 mmHg 67%
    15:00 +29°C° 0.1 mm 1 mps 706 mmHg 68%
    16:00 +27°C° 0 mm 1 mps 707 mmHg 74%
    17:00 +23°C° 0 mm 0 mps 707 mmHg 80%
    18:00 +22°C° 0 mm 0 mps 707 mmHg 86%
    19:00 +21°C° 0 mm 0 mps 707 mmHg 87%
    20:00 +21°C° 0 mm 0 mps 708 mmHg 88%
    21:00 +20°C° 0 mm 0 mps 708 mmHg 89%
    22:00 +20°C° 0 mm 0 mps 708 mmHg 90%
    23:00 +20°C° 0 mm 0 mps 708 mmHg 91%

    21 November, Thursday

    Time Temperature Precipitation Wind Pressure Humidity
    00:00 +19°C° 0 mm 0 mps 708 mmHg 91%
    01:00 +19°C° 0 mm 0 mps 707 mmHg 91%
    02:00 +19°C° 0 mm 0 mps 707 mmHg 91%
    03:00 +19°C° 0 mm 0 mps 707 mmHg 91%
    04:00 +19°C° 0 mm 0 mps 707 mmHg 90%
    05:00 +18°C° 0 mm 0 mps 707 mmHg 90%
    06:00 +20°C° 0 mm 1 mps 707 mmHg 89%
    07:00 +22°C° 0 mm 1 mps 708 mmHg 83%
    08:00 +24°C° 0 mm 1 mps 708 mmHg 78%
    09:00 +26°C° 0 mm 1 mps 709 mmHg 73%
    10:00 +28°C° 0 mm 1 mps 708 mmHg 69%
    11:00 +29°C° 0 mm 1 mps 708 mmHg 66%
    12:00 +31°C° 0 mm 1 mps 708 mmHg 63%
    13:00 +30°C° 0.1 mm 1 mps 707 mmHg 65%
    14:00 +30°C° 0.1 mm 1 mps 706 mmHg 66%
    15:00 +30°C° 0.1 mm 1 mps 706 mmHg 68%
    16:00 +26°C° 0.1 mm 0 mps 706 mmHg 74%
    17:00 +24°C° 0.1 mm 0 mps 706 mmHg 80%
    18:00 +23°C° 0.1 mm 0 mps 706 mmHg 86%
    19:00 +22°C° 0 mm 0 mps 706 mmHg 87%
    20:00 +22°C° 0 mm 0 mps 707 mmHg 87%
    21:00 +22°C° 0 mm 0 mps 707 mmHg 88%
    22:00 +21°C° 0 mm 0 mps 707 mmHg 89%
    23:00 +21°C° 0 mm 0 mps 707 mmHg 90%

    22 November, Friday

    Time Temperature Precipitation Wind Pressure Humidity
    00:00 +21°C° 0 mm 0 mps 707 mmHg 91%
    01:00 +20°C° 0 mm 0 mps 707 mmHg 91%
    02:00 +20°C° 0 mm 0 mps 706 mmHg 91%
    03:00 +20°C° 0 mm 0 mps 706 mmHg 91%
    04:00 +20°C° 0 mm 0 mps 706 mmHg 91%
    05:00 +20°C° 0 mm 0 mps 706 mmHg 91%
    06:00 +19°C° 0 mm 0 mps 706 mmHg 91%
    07:00 +21°C° 0 mm 0 mps 707 mmHg 86%
    08:00 +25°C° 0 mm 1 mps 707 mmHg 81%
    09:00 +27°C° 0 mm 1 mps 708 mmHg 76%
    10:00 +28°C° 0 mm 1 mps 708 mmHg 72%
    11:00 +30°C° 0 mm 1 mps 707 mmHg 68%
    12:00 +31°C° 0 mm 1 mps 707 mmHg 64%
    13:00 +31°C° 0.2 mm 1 mps 707 mmHg 66%
    14:00 +31°C° 0.2 mm 1 mps 706 mmHg 67%
    15:00 +28°C° 0.2 mm 0 mps 705 mmHg 69%
    16:00 +26°C° 0.3 mm 0 mps 705 mmHg 74%
    17:00 +25°C° 0.3 mm 0 mps 706 mmHg 80%
    18:00 +23°C° 0.3 mm 0 mps 706 mmHg 85%
    19:00 +23°C° 0 mm 0 mps 706 mmHg 85%
    20:00 +22°C° 0 mm 0 mps 707 mmHg 85%
    21:00 +22°C° 0 mm 0 mps 707 mmHg 85%
    22:00 +21°C° 0 mm 0 mps 707 mmHg 86%
    23:00 +21°C° 0 mm 0 mps 707 mmHg 87%

    23 November, Saturday

    Time Temperature Precipitation Wind Pressure Humidity
    00:00 +21°C° 0 mm 0 mps 707 mmHg 88%
    01:00 +21°C° 0 mm 0 mps 707 mmHg 89%
    02:00 +20°C° 0 mm 0 mps 706 mmHg 90%
    03:00 +20°C° 0 mm 0 mps 706 mmHg 91%
    04:00 +20°C° 0 mm 0 mps 706 mmHg 92%
    05:00 +20°C° 0 mm 0 mps 707 mmHg 92%
    06:00 +19°C° 0 mm 0 mps 707 mmHg 93%
    07:00 +21°C° 0 mm 0 mps 707 mmHg 88%
    08:00 +23°C° 0 mm 0 mps 708 mmHg 84%
    09:00 +25°C° 0 mm 0 mps 709 mmHg 79%
    10:00 +28°C° 0.1 mm 1 mps 709 mmHg 76%
    11:00 +29°C° 0.1 mm 1 mps 708 mmHg 72%
    12:00 +30°C° 0.1 mm 1 mps 708 mmHg 68%
    13:00 +30°C° 0.4 mm 1 mps 707 mmHg 70%
    14:00 +29°C° 0.4 mm 1 mps 707 mmHg 72%
    15:00 +29°C° 0.4 mm 2 mps 706 mmHg 74%
    16:00 +27°C° 0.6 mm 2 mps 706 mmHg 79%
    17:00 +26°C° 0.6 mm 1 mps 707 mmHg 85%
    18:00 +24°C° 0.6 mm 1 mps 707 mmHg 91%
    19:00 +24°C° 0.1 mm 1 mps 707 mmHg 91%
    20:00 +23°C° 0.1 mm 1 mps 708 mmHg 92%
    21:00 +23°C° 0.1 mm 1 mps 709 mmHg 92%
    22:00 +22°C° 0 mm 1 mps 708 mmHg 93%
    23:00 +22°C° 0 mm 1 mps 708 mmHg 93%
    Show more